| time (UTC) | temp C | wind direction | speed KPH | gust KPH | rain 1hr cm | rain 24hr cm | rain mn cm | humidity % | barometer mb |
| 20260505224007 | 16 | 0 | 0.0 | 0.0 | 0.00 | 0.00 | 0.00 | 58 | 1004.8 |
| 20260505223506 | 16 | 203 | 0.0 | 6.4 | 0.00 | 0.00 | 0.00 | 58 | 1004.8 |
| 20260505222506 | 16 | 203 | 6.4 | 6.4 | 0.00 | 0.00 | 0.00 | 58 | 1004.7 |
| 20260505222006 | 16 | 0 | 0.0 | 0.0 | 0.00 | 0.00 | 0.00 | 57 | 1004.5 |
| 20260505221506 | 17 | 0 | 0.0 | 0.0 | 0.00 | 0.00 | 0.00 | 57 | 1004.3 |
| 20260505221006 | 17 | 0 | 0.0 | 0.0 | 0.00 | 0.00 | 0.00 | 57 | 1004.4 |
| 20260505220007 | 17 | 0 | 0.0 | 0.0 | 0.00 | 0.00 | 0.00 | 57 | 1004.5 |
| 20260505215506 | 17 | 0 | 0.0 | 0.0 | 0.00 | 0.00 | 0.00 | 56 | 1004.4 |
| 20260505214507 | 17 | 0 | 0.0 | 0.0 | 0.00 | 0.00 | 0.00 | 56 | 1004.2 |
| 20260505214006 | 17 | 0 | 0.0 | 0.0 | 0.00 | 0.00 | 0.00 | 56 | 1004.2 |
| 20260505213506 | 17 | 0 | 0.0 | 0.0 | 0.00 | 0.00 | 0.00 | 56 | 1004.2 |
| 20260505213006 | 17 | 0 | 0.0 | 0.0 | 0.00 | 0.00 | 0.00 | 55 | 1004.3 |
| 20260505212506 | 17 | 0 | 0.0 | 0.0 | 0.00 | 0.00 | 0.00 | 55 | 1004.2 |
| 20260505212008 | 17 | 0 | 0.0 | 0.0 | 0.00 | 0.00 | 0.00 | 55 | 1004.1 |
| 20260505211506 | 17 | 0 | 0.0 | 0.0 | 0.00 | 0.00 | 0.00 | 55 | 1004.2 |
| 20260505211007 | 18 | 203 | 0.0 | 9.7 | 0.00 | 0.00 | 0.00 | 55 | 1004.2 |
| 20260505210506 | 18 | 208 | 0.0 | 9.7 | 0.00 | 0.00 | 0.00 | 54 | 1004.2 |
| 20260505210006 | 18 | 208 | 0.0 | 11.3 | 0.00 | 0.00 | 0.00 | 54 | 1004.0 |
| 20260505205507 | 18 | 199 | 0.0 | 11.3 | 0.00 | 0.00 | 0.00 | 54 | 1003.8 |
| 20260505205006 | 18 | 199 | 0.0 | 11.3 | 0.00 | 0.00 | 0.00 | 54 | 1003.7 |
| 20260505204506 | 18 | 203 | 0.0 | 11.3 | 0.00 | 0.00 | 0.00 | 54 | 1003.6 |
| 20260505203506 | 18 | 190 | 0.0 | 8.0 | 0.00 | 0.00 | 0.00 | 53 | 1003.5 |
| 20260505203007 | 18 | 209 | 0.0 | 8.0 | 0.00 | 0.00 | 0.00 | 53 | 1003.5 |
| 20260505202506 | 18 | 213 | 0.0 | 8.0 | 0.00 | 0.00 | 0.00 | 53 | 1003.2 |
| 20260505202007 | 18 | 194 | 0.0 | 4.8 | 0.00 | 0.00 | 0.00 | 53 | 1003.3 |
| 20260505201510 | 18 | 194 | 0.0 | 9.7 | 0.00 | 0.00 | 0.00 | 53 | 1003.3 |
| 20260505201006 | 18 | 203 | 0.0 | 12.9 | 0.00 | 0.00 | 0.00 | 52 | 1003.2 |
| 20260505200506 | 18 | 200 | 0.0 | 12.9 | 0.00 | 0.00 | 0.00 | 52 | 1003.3 |
| 20260505195506 | 18 | 181 | 0.0 | 6.4 | 0.00 | 0.00 | 0.00 | 52 | 1003.1 |
| 20260505195006 | 18 | 199 | 0.0 | 11.3 | 0.00 | 0.00 | 0.00 | 51 | 1003.3 |
| 20260505194008 | 19 | 215 | 0.0 | 20.9 | 0.00 | 0.00 | 0.00 | 51 | 1003.2 |
| 20260505193506 | 19 | 203 | 6.4 | 19.3 | 0.00 | 0.00 | 0.00 | 51 | 1003.1 |
| 20260505192506 | 19 | 195 | 9.7 | 9.7 | 0.00 | 0.00 | 0.00 | 50 | 1003.2 |
| 20260505191506 | 19 | 193 | 0.0 | 11.3 | 0.00 | 0.00 | 0.00 | 49 | 1003.2 |
| 20260505191006 | 20 | 195 | 0.0 | 9.7 | 0.00 | 0.00 | 0.00 | 49 | 1003.0 |
| 20260505190506 | 20 | 191 | 0.0 | 11.3 | 0.00 | 0.00 | 0.00 | 49 | 1003.2 |
| 20260505190007 | 20 | 193 | 0.0 | 11.3 | 0.00 | 0.00 | 0.00 | 48 | 1003.2 |
| 20260505185506 | 20 | 197 | 0.0 | 12.9 | 0.00 | 0.00 | 0.00 | 48 | 1003.3 |
| 20260505185006 | 20 | 196 | 0.0 | 12.9 | 0.00 | 0.00 | 0.00 | 48 | 1003.3 |
| 20260505184006 | 20 | 194 | 0.0 | 24.1 | 0.00 | 0.00 | 0.00 | 47 | 1003.4 |
| 20260505182007 | 21 | 186 | 0.0 | 16.1 | 0.00 | 0.00 | 0.00 | 45 | 1003.1 |
| 20260505181506 | 21 | 190 | 16.1 | 17.7 | 0.00 | 0.00 | 0.00 | 45 | 1003.0 |
| 20260505181006 | 21 | 197 | 0.0 | 17.7 | 0.00 | 0.00 | 0.00 | 45 | 1003.0 |
| 20260505180506 | 21 | 208 | 0.0 | 9.7 | 0.00 | 0.00 | 0.00 | 44 | 1003.0 |
| 20260505180006 | 21 | 213 | 0.0 | 9.7 | 0.00 | 0.00 | 0.00 | 44 | 1003.1 |
| 20260505175006 | 21 | 198 | 0.0 | 20.9 | 0.00 | 0.00 | 0.00 | 44 | 1003.2 |
| 20260505174508 | 22 | 191 | 4.8 | 20.9 | 0.00 | 0.00 | 0.00 | 43 | 1003.0 |
| 20260505174006 | 22 | 192 | 9.7 | 20.9 | 0.00 | 0.00 | 0.00 | 43 | 1003.0 |
| 20260505173507 | 22 | 196 | 6.4 | 14.5 | 0.00 | 0.00 | 0.00 | 43 | 1003.3 |
| 20260505173007 | 22 | 209 | 0.0 | 17.7 | 0.00 | 0.00 | 0.00 | 43 | 1003.1 |
| 20260505172507 | 22 | 202 | 0.0 | 17.7 | 0.00 | 0.00 | 0.00 | 43 | 1003.1 |
| 20260505172006 | 22 | 198 | 0.0 | 14.5 | 0.00 | 0.00 | 0.00 | 43 | 1003.0 |
| 20260505171507 | 22 | 202 | 8.0 | 24.1 | 0.00 | 0.00 | 0.00 | 43 | 1003.1 |
| 20260505171006 | 22 | 202 | 16.1 | 24.1 | 0.00 | 0.00 | 0.00 | 43 | 1003.0 |
| 20260505170507 | 22 | 200 | 4.8 | 19.3 | 0.00 | 0.00 | 0.00 | 43 | 1003.2 |
| 20260505170006 | 22 | 197 | 0.0 | 14.5 | 0.00 | 0.00 | 0.00 | 43 | 1003.2 |
| 20260505165507 | 22 | 188 | 0.0 | 12.9 | 0.00 | 0.00 | 0.00 | 43 | 1003.2 |
| 20260505165006 | 22 | 193 | 0.0 | 14.5 | 0.00 | 0.00 | 0.00 | 43 | 1003.2 |
| 20260505164507 | 23 | 194 | 0.0 | 19.3 | 0.00 | 0.00 | 0.00 | 42 | 1003.3 |
| 20260505164006 | 23 | 195 | 9.7 | 19.3 | 0.00 | 0.00 | 0.00 | 42 | 1003.3 |
| 20260505163507 | 23 | 194 | 0.0 | 19.3 | 0.00 | 0.00 | 0.00 | 42 | 1003.2 |
| 20260505163008 | 23 | 194 | 0.0 | 14.5 | 0.00 | 0.00 | 0.00 | 42 | 1003.4 |
| 20260505162506 | 23 | 187 | 0.0 | 14.5 | 0.00 | 0.00 | 0.00 | 42 | 1003.3 |
| 20260505160506 | 23 | 207 | 0.0 | 9.7 | 0.00 | 0.00 | 0.00 | 41 | 1003.4 |
| 20260505153007 | 25 | 0 | 0.0 | 0.0 | 0.00 | 0.00 | 0.00 | 39 | 1003.6 |
| 20260505152506 | 25 | 0 | 0.0 | 0.0 | 0.00 | 0.00 | 0.00 | 38 | 1003.6 |
| 20260505152007 | 25 | 186 | 0.0 | 29.0 | 0.00 | 0.00 | 0.00 | 38 | 1003.7 |
| 20260505151506 | 25 | 194 | 0.0 | 29.0 | 0.00 | 0.00 | 0.00 | 37 | 1003.6 |
| 20260505151007 | 25 | 193 | 8.0 | 33.8 | 0.00 | 0.00 | 0.00 | 37 | 1003.8 |
| 20260505150505 | 26 | 191 | 8.0 | 33.8 | 0.00 | 0.00 | 0.00 | 36 | 1003.7 |
| 20260505124506 | 27 | 185 | 9.7 | 17.7 | 0.00 | 0.00 | 0.00 | 30 | 1004.9 |
| 20260505124006 | 27 | 197 | 12.9 | 12.9 | 0.00 | 0.00 | 0.00 | 31 | 1005.0 |
| 20260505123006 | 27 | 203 | 0.0 | 19.3 | 0.00 | 0.00 | 0.00 | 30 | 1005.1 |
| 20260505122505 | 27 | 197 | 9.7 | 12.9 | 0.00 | 0.00 | 0.00 | 30 | 1005.1 |
| 20260505122006 | 27 | 200 | 6.4 | 14.5 | 0.00 | 0.00 | 0.00 | 31 | 1005.1 |
| 20260505121508 | 27 | 196 | 4.8 | 19.3 | 0.00 | 0.00 | 0.00 | 30 | 1005.3 |
| 20260505121006 | 27 | 188 | 0.0 | 19.3 | 0.00 | 0.00 | 0.00 | 30 | 1005.4 |
| 20260505120506 | 27 | 185 | 0.0 | 16.1 | 0.00 | 0.00 | 0.00 | 30 | 1005.4 |
| 20260505120006 | 27 | 183 | 0.0 | 16.1 | 0.00 | 0.00 | 0.00 | 31 | 1005.5 |
| 20260505115507 | 27 | 203 | 0.0 | 12.9 | 0.00 | 0.00 | 0.00 | 33 | 1005.6 |
| 20260505115006 | 27 | 201 | 0.0 | 12.9 | 0.00 | 0.00 | 0.00 | 33 | 1005.5 |
| 20260505114506 | 27 | 194 | 4.8 | 24.1 | 0.00 | 0.00 | 0.00 | 34 | 1005.5 |
| 20260505114006 | 27 | 195 | 0.0 | 24.1 | 0.00 | 0.00 | 0.00 | 35 | 1005.6 |
| 20260505113006 | 26 | 201 | 0.0 | 9.7 | 0.00 | 0.00 | 0.00 | 38 | 1005.7 |
| 20260505112506 | 26 | 164 | 0.0 | 9.7 | 0.00 | 0.00 | 0.00 | 38 | 1005.9 |
| 20260505112006 | 26 | 120 | 0.0 | 8.0 | 0.00 | 0.00 | 0.00 | 40 | 1005.8 |
| 20260505111506 | 26 | 0 | 0.0 | 0.0 | 0.00 | 0.00 | 0.00 | 40 | 1005.9 |
| 20260505111006 | 26 | 199 | 0.0 | 9.7 | 0.00 | 0.00 | 0.00 | 40 | 1006.0 |
| 20260505102006 | 24 | 0 | 0.0 | 0.0 | 0.00 | 0.00 | 0.00 | 46 | 1006.8 |
| 20260505101507 | 23 | 0 | 0.0 | 0.0 | 0.00 | 0.00 | 0.00 | 46 | 1006.9 |
| 20260505101006 | 23 | 0 | 0.0 | 0.0 | 0.00 | 0.00 | 0.00 | 47 | 1007.0 |
| 20260505100505 | 23 | 203 | 0.0 | 9.7 | 0.00 | 0.00 | 0.00 | 48 | 1007.1 |
| 20260505095507 | 23 | 203 | 0.0 | 3.2 | 0.00 | 0.00 | 0.00 | 48 | 1006.9 |
| 20260505094006 | 22 | 220 | 0.0 | 8.0 | 0.00 | 0.00 | 0.00 | 49 | 1007.3 |
| 20260505093508 | 22 | 203 | 0.0 | 8.0 | 0.00 | 0.00 | 0.00 | 50 | 1007.6 |
| 20260505093006 | 22 | 203 | 0.0 | 8.0 | 0.00 | 0.00 | 0.00 | 51 | 1007.7 |
| 20260505092506 | 22 | 0 | 0.0 | 0.0 | 0.00 | 0.00 | 0.00 | 51 | 1007.8 |
| 20260505092005 | 22 | 0 | 0.0 | 0.0 | 0.00 | 0.00 | 0.00 | 52 | 1007.9 |
| 20260505091507 | 21 | 0 | 0.0 | 0.0 | 0.00 | 0.00 | 0.00 | 52 | 1008.0 |
| 20260505091006 | 21 | 0 | 0.0 | 0.0 | 0.00 | 0.00 | 0.00 | 53 | 1007.8 |
| 20260505090506 | 21 | 0 | 0.0 | 0.0 | 0.00 | 0.00 | 0.00 | 54 | 1008.0 |
| 20260505090006 | 21 | 0 | 0.0 | 0.0 | 0.00 | 0.00 | 0.00 | 54 | 1008.1 |
| 20260505085507 | 20 | 0 | 0.0 | 0.0 | 0.00 | 0.00 | 0.00 | 54 | 1008.2 |
| 20260505085006 | 20 | 0 | 0.0 | 0.0 | 0.00 | 0.00 | 0.00 | 54 | 1008.2 |
| 20260505084506 | 20 | 0 | 0.0 | 0.0 | 0.00 | 0.00 | 0.00 | 55 | 1008.1 |
| 20260505084006 | 20 | 0 | 0.0 | 0.0 | 0.00 | 0.00 | 0.00 | 55 | 1008.2 |
| 20260505083507 | 20 | 0 | 0.0 | 0.0 | 0.00 | 0.00 | 0.00 | 55 | 1008.4 |
| 20260505083005 | 19 | 0 | 0.0 | 0.0 | 0.00 | 0.00 | 0.00 | 56 | 1008.4 |
| 20260505082506 | 19 | 0 | 0.0 | 0.0 | 0.00 | 0.00 | 0.00 | 57 | 1008.4 |
| 20260505082006 | 18 | 203 | 0.0 | 8.0 | 0.00 | 0.00 | 0.00 | 57 | 1008.4 |
| 20260505081508 | 18 | 203 | 0.0 | 8.0 | 0.00 | 0.00 | 0.00 | 58 | 1008.4 |
| 20260505081006 | 18 | 0 | 0.0 | 0.0 | 0.00 | 0.00 | 0.00 | 59 | 1008.4 |
| 20260505080506 | 18 | 203 | 0.0 | 6.4 | 0.00 | 0.00 | 0.00 | 60 | 1008.4 |
| 20260505080005 | 18 | 203 | 0.0 | 6.4 | 0.00 | 0.00 | 0.00 | 59 | 1008.5 |
| 20260505075507 | 18 | 0 | 0.0 | 0.0 | 0.00 | 0.00 | 0.00 | 60 | 1008.5 |
| 20260505075005 | 18 | 203 | 0.0 | 3.2 | 0.00 | 0.00 | 0.00 | 60 | 1008.6 |
| 20260505074506 | 17 | 203 | 0.0 | 3.2 | 0.00 | 0.00 | 0.00 | 61 | 1008.5 |
| 20260505074006 | 17 | 0 | 0.0 | 0.0 | 0.00 | 0.00 | 0.00 | 62 | 1008.5 |
| 20260505073508 | 17 | 0 | 0.0 | 0.0 | 0.00 | 0.00 | 0.00 | 63 | 1008.5 |
| 20260505073006 | 17 | 0 | 0.0 | 0.0 | 0.00 | 0.00 | 0.00 | 63 | 1008.5 |
| 20260505072505 | 17 | 0 | 0.0 | 0.0 | 0.00 | 0.00 | 0.00 | 63 | 1008.5 |
| 20260505071508 | 16 | 0 | 0.0 | 0.0 | 0.00 | 0.00 | 0.00 | 63 | 1008.6 |
| 20260505070506 | 16 | 0 | 0.0 | 0.0 | 0.00 | 0.00 | 0.00 | 64 | 1008.8 |
| 20260505070005 | 16 | 0 | 0.0 | 0.0 | 0.00 | 0.00 | 0.00 | 64 | 1008.8 |
| 20260505065507 | 16 | 0 | 0.0 | 0.0 | 0.00 | 0.00 | 0.00 | 64 | 1008.6 |
| 20260505065006 | 16 | 0 | 0.0 | 0.0 | 0.00 | 0.00 | 0.00 | 65 | 1008.6 |
| 20260505064506 | 16 | 0 | 0.0 | 0.0 | 0.00 | 0.00 | 0.00 | 65 | 1008.5 |
| 20260505064006 | 15 | 0 | 0.0 | 0.0 | 0.00 | 0.00 | 0.00 | 66 | 1008.5 |
| 20260505063507 | 15 | 0 | 0.0 | 0.0 | 0.00 | 0.00 | 0.00 | 66 | 1008.5 |
| 20260505063006 | 15 | 0 | 0.0 | 0.0 | 0.00 | 0.00 | 0.00 | 66 | 1008.5 |
| 20260505062505 | 15 | 0 | 0.0 | 0.0 | 0.00 | 0.00 | 0.00 | 66 | 1008.5 |
| 20260505062006 | 15 | 0 | 0.0 | 0.0 | 0.00 | 0.00 | 0.00 | 66 | 1008.5 |
| 20260505061005 | 15 | 0 | 0.0 | 0.0 | 0.00 | 0.00 | 0.00 | 67 | 1008.5 |
| 20260505060506 | 14 | 0 | 0.0 | 0.0 | 0.00 | 0.00 | 0.00 | 68 | 1008.4 |
| 20260505060006 | 14 | 203 | 0.0 | 9.7 | 0.00 | 0.00 | 0.00 | 68 | 1008.4 |
| 20260505055507 | 13 | 203 | 0.0 | 9.7 | 0.00 | 0.00 | 0.00 | 68 | 1008.5 |
| 20260505055005 | 13 | 0 | 0.0 | 0.0 | 0.00 | 0.00 | 0.00 | 69 | 1008.4 |
| 20260505054506 | 13 | 0 | 0.0 | 0.0 | 0.00 | 0.00 | 0.00 | 69 | 1008.5 |
| 20260505054006 | 13 | 0 | 0.0 | 0.0 | 0.00 | 0.00 | 0.00 | 69 | 1008.5 |
| 20260505053507 | 13 | 0 | 0.0 | 0.0 | 0.00 | 0.00 | 0.00 | 69 | 1008.4 |
| 20260505053006 | 12 | 0 | 0.0 | 0.0 | 0.00 | 0.00 | 0.00 | 69 | 1008.6 |
| 20260505052506 | 12 | 0 | 0.0 | 0.0 | 0.00 | 0.00 | 0.00 | 69 | 1008.6 |
| 20260505052005 | 12 | 0 | 0.0 | 0.0 | 0.00 | 0.00 | 0.00 | 70 | 1008.5 |
| 20260505051506 | 12 | 0 | 0.0 | 0.0 | 0.00 | 0.00 | 0.00 | 70 | 1008.6 |
| 20260505051007 | 12 | 0 | 0.0 | 0.0 | 0.00 | 0.00 | 0.00 | 70 | 1008.5 |
| 20260505050506 | 12 | 0 | 0.0 | 0.0 | 0.00 | 0.00 | 0.00 | 70 | 1008.5 |
| 20260505041506 | 12 | 0 | 0.0 | 0.0 | 0.00 | 0.00 | 0.00 | 66 | 1008.2 |
| 20260505041006 | 12 | 0 | 0.0 | 0.0 | 0.00 | 0.00 | 0.00 | 66 | 1008.2 |
| 20260505040507 | 12 | 0 | 0.0 | 0.0 | 0.00 | 0.00 | 0.00 | 67 | 1008.4 |
| 20260505035006 | 12 | 0 | 0.0 | 0.0 | 0.00 | 0.00 | 0.00 | 67 | 1008.4 |
| 20260505034506 | 12 | 0 | 0.0 | 0.0 | 0.00 | 0.00 | 0.00 | 67 | 1008.5 |
| 20260505034007 | 12 | 0 | 0.0 | 0.0 | 0.00 | 0.00 | 0.00 | 66 | 1008.4 |
| 20260505033505 | 12 | 0 | 0.0 | 0.0 | 0.00 | 0.00 | 0.00 | 66 | 1008.4 |
| 20260505033006 | 12 | 0 | 0.0 | 0.0 | 0.00 | 0.00 | 0.00 | 65 | 1008.2 |
| 20260505032007 | 12 | 0 | 0.0 | 0.0 | 0.00 | 0.00 | 0.00 | 66 | 1008.4 |
| 20260505031006 | 12 | 0 | 0.0 | 0.0 | 0.00 | 0.00 | 0.00 | 65 | 1008.4 |
| 20260505030506 | 12 | 0 | 0.0 | 0.0 | 0.00 | 0.00 | 0.00 | 65 | 1008.3 |
| 20260505030007 | 12 | 0 | 0.0 | 0.0 | 0.00 | 0.00 | 0.00 | 64 | 1008.4 |
| 20260505025006 | 12 | 0 | 0.0 | 0.0 | 0.00 | 0.00 | 0.00 | 64 | 1008.3 |
| 20260505024006 | 13 | 0 | 0.0 | 0.0 | 0.00 | 0.00 | 0.00 | 63 | 1008.4 |
| 20260505023507 | 13 | 0 | 0.0 | 0.0 | 0.00 | 0.00 | 0.00 | 63 | 1008.4 |
| 20260505022505 | 13 | 0 | 0.0 | 0.0 | 0.00 | 0.00 | 0.00 | 63 | 1008.5 |
| 20260505021507 | 13 | 0 | 0.0 | 0.0 | 0.00 | 0.00 | 0.00 | 64 | 1008.5 |
| 20260505015506 | 13 | 0 | 0.0 | 0.0 | 0.00 | 0.00 | 0.00 | 63 | 1008.6 |
| 20260505015006 | 13 | 0 | 0.0 | 0.0 | 0.00 | 0.00 | 0.00 | 62 | 1008.5 |
| 20260505014506 | 13 | 0 | 0.0 | 0.0 | 0.00 | 0.00 | 0.00 | 62 | 1008.5 |
| 20260505014005 | 13 | 0 | 0.0 | 0.0 | 0.00 | 0.00 | 0.00 | 62 | 1008.6 |
| 20260505013506 | 13 | 0 | 0.0 | 0.0 | 0.00 | 0.00 | 0.00 | 61 | 1008.6 |
| 20260505012506 | 13 | 0 | 0.0 | 0.0 | 0.00 | 0.00 | 0.00 | 61 | 1008.6 |
| 20260505012005 | 13 | 0 | 0.0 | 0.0 | 0.00 | 0.00 | 0.00 | 61 | 1008.5 |
| 20260505011006 | 13 | 0 | 0.0 | 0.0 | 0.00 | 0.00 | 0.00 | 60 | 1008.6 |
| 20260505010507 | 13 | 0 | 0.0 | 0.0 | 0.00 | 0.00 | 0.00 | 59 | 1008.8 |
| 20260505010006 | 13 | 0 | 0.0 | 0.0 | 0.00 | 0.00 | 0.00 | 59 | 1008.6 |
| 20260505005506 | 14 | 0 | 0.0 | 0.0 | 0.00 | 0.00 | 0.00 | 59 | 1008.6 |
| 20260505005005 | 14 | 0 | 0.0 | 0.0 | 0.00 | 0.00 | 0.00 | 58 | 1008.8 |
| 20260505004505 | 14 | 0 | 0.0 | 0.0 | 0.00 | 0.00 | 0.00 | 58 | 1008.6 |
| 20260505004006 | 14 | 0 | 0.0 | 0.0 | 0.00 | 0.00 | 0.00 | 58 | 1008.7 |
| 20260505003006 | 15 | 0 | 0.0 | 0.0 | 0.00 | 0.00 | 0.00 | 57 | 1008.8 |
| 20260505002506 | 15 | 0 | 0.0 | 0.0 | 0.00 | 0.00 | 0.00 | 57 | 1008.8 |
| 20260505002006 | 15 | 0 | 0.0 | 0.0 | 0.00 | 0.00 | 0.00 | 56 | 1008.9 |
| 20260505001507 | 15 | 0 | 0.0 | 0.0 | 0.00 | 0.00 | 0.00 | 55 | 1008.8 |
| 20260505001006 | 15 | 0 | 0.0 | 0.0 | 0.00 | 0.00 | 0.00 | 55 | 1008.8 |
| 20260505000505 | 15 | 0 | 0.0 | 0.0 | 0.00 | 0.00 | 0.00 | 55 | 1009.0 |
| 20260504235007 | 15 | 0 | 0.0 | 0.0 | 0.00 | 0.00 | 0.00 | 54 | 1009.1 |
| 20260504234506 | 16 | 0 | 0.0 | 0.0 | 0.00 | 0.00 | 0.00 | 54 | 1009.0 |
| 20260504234006 | 16 | 0 | 0.0 | 0.0 | 0.00 | 0.00 | 0.00 | 53 | 1009.2 |
| 20260504233505 | 16 | 0 | 0.0 | 0.0 | 0.00 | 0.00 | 0.00 | 53 | 1009.2 |
| 20260504233005 | 16 | 0 | 0.0 | 0.0 | 0.00 | 0.00 | 0.00 | 52 | 1009.2 |
| 20260504232507 | 16 | 0 | 0.0 | 0.0 | 0.00 | 0.00 | 0.00 | 51 | 1009.2 |
| 20260504232006 | 16 | 0 | 0.0 | 0.0 | 0.00 | 0.00 | 0.00 | 51 | 1009.1 |
| 20260504231505 | 16 | 0 | 0.0 | 0.0 | 0.00 | 0.00 | 0.00 | 51 | 1009.2 |
| 20260504231006 | 16 | 0 | 0.0 | 0.0 | 0.00 | 0.00 | 0.00 | 51 | 1009.1 |
| 20260504230507 | 16 | 0 | 0.0 | 0.0 | 0.00 | 0.00 | 0.00 | 51 | 1009.1 |
| 20260504230005 | 17 | 0 | 0.0 | 0.0 | 0.00 | 0.00 | 0.00 | 50 | 1009.2 |
| 20260504225505 | 17 | 0 | 0.0 | 0.0 | 0.00 | 0.00 | 0.00 | 50 | 1009.2 |
| 20260504225006 | 17 | 0 | 0.0 | 0.0 | 0.00 | 0.00 | 0.00 | 49 | 1009.2 |
| 20260504224507 | 17 | 0 | 0.0 | 0.0 | 0.00 | 0.00 | 0.00 | 49 | 1009.2 |